Time,TemperatureF,DewpointF,PressureIn,WindDirection,WindDirectionDegrees,WindSpeedMPH,WindSpeedGustMPH,Humidity,HourlyPrecipIn,Conditions,Clouds,dailyrainin,SoftwareType,DateUTC
2013-02-14 00:00:00,43.0,29.6,29.97,NNE,20,3.6,7.6,59,0.00,,,0.00,VWS V12.08,2013-02-13 23:00:00,
2013-02-14 00:04:00,42.8,29.5,30.00,NE,44,3.1,5.4,59,0.00,,,0.00,VWS V12.08,2013-02-13 23:04:00,
2013-02-14 00:09:00,42.8,29.5,30.00,NNE,27,0.0,5.4,59,0.00,,,0.00,VWS V12.08,2013-02-13 23:09:00,
2013-02-14 00:10:00,42.8,29.5,30.00,NNE,27,0.0,5.4,59,0.00,,,0.00,VWS V12.08,2013-02-13 23:10:00,
2013-02-14 00:14:00,42.6,29.3,30.00,NNE,27,0.0,2.2,59,0.00,,,0.00,VWS V12.08,2013-02-13 23:14:00,
2013-02-14 00:19:00,42.4,29.1,30.00,NNW,344,0.0,3.6,59,0.00,,,0.00,VWS V12.08,2013-02-13 23:19:00,
2013-02-14 00:20:00,42.3,29.0,30.00,NW,324,3.1,3.6,59,0.00,,,0.00,VWS V12.08,2013-02-13 23:20:00,
2013-02-14 00:24:00,41.7,28.5,30.00,NW,324,0.0,3.1,59,0.00,,,0.00,VWS V12.08,2013-02-13 23:24:00,
2013-02-14 00:29:00,41.0,27.8,30.00,NW,324,0.0,3.1,59,0.00,,,0.00,VWS V12.08,2013-02-13 23:29:00,
2013-02-14 00:30:00,41.0,27.8,30.00,NW,324,0.0,3.1,59,0.00,,,0.00,VWS V12.08,2013-02-13 23:30:00,
2013-02-14 00:34:00,40.5,27.7,30.00,NW,324,0.0,3.6,60,0.00,,,0.00,VWS V12.08,2013-02-13 23:34:00,
2013-02-14 00:39:00,40.1,27.4,30.00,NNW,329,0.0,3.6,60,0.00,,,0.00,VWS V12.08,2013-02-13 23:39:00,
2013-02-14 00:40:00,40.1,27.4,30.00,NNW,329,2.2,3.6,60,0.00,,,0.00,VWS V12.08,2013-02-13 23:40:00,
2013-02-14 00:44:00,39.7,27.0,30.00,NNW,329,2.2,3.1,60,0.00,,,0.00,VWS V12.08,2013-02-13 23:44:00,
2013-02-14 00:49:00,39.6,27.2,30.00,WNW,296,2.7,3.1,61,0.00,,,0.00,VWS V12.08,2013-02-13 23:49:00,
2013-02-14 00:50:00,39.6,27.2,30.00,WNW,296,2.2,3.1,61,0.00,,,0.00,VWS V12.08,2013-02-13 23:50:00,
2013-02-14 00:54:00,39.4,27.1,30.00,West,280,3.1,4.0,61,0.00,,,0.00,VWS V12.08,2013-02-13 23:54:00,
2013-02-14 00:59:00,39.2,27.3,30.00,West,276,0.0,4.0,62,0.00,,,0.00,VWS V12.08,2013-02-13 23:59:00,
2013-02-14 01:00:00,39.2,27.3,30.00,West,276,3.1,4.0,62,0.00,,,0.00,VWS V12.08,2013-02-14 00:00:00,
2013-02-14 01:04:00,39.0,27.1,30.00,West,276,3.1,3.6,62,0.00,,,0.00,VWS V12.08,2013-02-14 00:04:00,
2013-02-14 01:09:00,38.8,27.3,30.00,West,260,3.6,5.4,63,0.00,,,0.00,VWS V12.08,2013-02-14 00:09:00,
2013-02-14 01:10:00,38.8,27.3,30.00,West,270,2.7,5.4,63,0.00,,,0.00,VWS V12.08,2013-02-14 00:10:00,
2013-02-14 01:14:00,38.5,27.0,30.00,West,269,3.1,4.0,63,0.00,,,0.00,VWS V12.08,2013-02-14 00:14:00,
2013-02-14 01:19:00,38.1,27.0,30.00,WSW,251,2.7,4.0,64,0.00,,,0.00,VWS V12.08,2013-02-14 00:19:00,
2013-02-14 01:20:00,38.1,27.0,30.00,NNW,339,4.0,4.0,64,0.00,,,0.00,VWS V12.08,2013-02-14 00:20:00,
2013-02-14 01:24:00,37.9,26.9,30.00,NNW,334,2.7,4.0,64,0.00,,,0.00,VWS V12.08,2013-02-14 00:24:00,
2013-02-14 01:29:00,37.9,27.2,30.00,NNW,333,4.5,4.5,65,0.00,,,0.00,VWS V12.08,2013-02-14 00:29:00,
2013-02-14 01:30:00,37.9,27.2,30.00,NNW,337,4.0,4.9,65,0.00,,,0.00,VWS V12.08,2013-02-14 00:30:00,
2013-02-14 01:34:00,37.9,27.6,30.00,NNW,343,5.4,6.3,66,0.00,,,0.00,VWS V12.08,2013-02-14 00:34:00,
2013-02-14 01:39:00,37.9,27.6,30.00,NNW,343,3.1,6.3,66,0.00,,,0.00,VWS V12.08,2013-02-14 00:39:00,
2013-02-14 01:40:00,37.9,27.6,30.00,NNW,343,2.2,6.3,66,0.00,,,0.00,VWS V12.08,2013-02-14 00:40:00,
2013-02-14 01:44:00,37.8,27.8,30.00,NNW,343,0.0,4.0,67,0.00,,,0.00,VWS V12.08,2013-02-14 00:44:00,
2013-02-14 01:49:00,37.6,27.6,30.00,NNW,343,0.0,4.0,67,0.00,,,0.00,VWS V12.08,2013-02-14 00:49:00,
2013-02-14 01:50:00,37.6,27.6,30.00,NNW,343,0.0,4.0,67,0.00,,,0.00,VWS V12.08,2013-02-14 00:50:00,
2013-02-14 01:54:00,37.4,27.5,30.00,NNW,343,0.0,3.6,67,0.00,,,0.00,VWS V12.08,2013-02-14 00:54:00,
2013-02-14 01:59:00,37.4,27.5,30.00,NNW,343,3.1,4.0,67,0.00,,,0.00,VWS V12.08,2013-02-14 00:59:00,
2013-02-14 02:00:00,37.4,27.8,30.00,NNW,343,2.7,4.0,68,0.00,,,0.00,VWS V12.08,2013-02-14 01:00:00,
2013-02-14 02:04:00,37.4,27.8,30.00,NNW,343,2.7,4.0,68,0.00,,,0.00,VWS V12.08,2013-02-14 01:04:00,
2013-02-14 02:09:00,37.2,27.6,30.00,NNW,343,4.0,4.0,68,0.00,,,0.00,VWS V12.08,2013-02-14 01:09:00,
2013-02-14 02:10:00,37.2,27.6,30.00,NNW,343,4.0,4.0,68,0.00,,,0.00,VWS V12.08,2013-02-14 01:10:00,
2013-02-14 02:14:00,37.0,27.8,30.00,NNW,343,2.7,4.5,69,0.00,,,0.00,VWS V12.08,2013-02-14 01:14:00,
2013-02-14 02:19:00,37.0,27.8,30.00,NNW,343,0.0,4.5,69,0.00,,,0.00,VWS V12.08,2013-02-14 01:19:00,
2013-02-14 02:20:00,37.0,27.8,30.00,NNW,343,0.0,4.5,69,0.00,,,0.00,VWS V12.08,2013-02-14 01:20:00,
2013-02-14 02:24:00,36.9,27.7,30.00,NNW,343,2.7,3.1,69,0.00,,,0.00,VWS V12.08,2013-02-14 01:24:00,
2013-02-14 02:29:00,36.7,27.5,30.00,NNW,343,2.7,3.1,69,0.00,,,0.00,VWS V12.08,2013-02-14 01:29:00,
2013-02-14 02:30:00,36.7,27.5,30.00,NNW,343,3.1,3.6,69,0.00,,,0.00,VWS V12.08,2013-02-14 01:30:00,
2013-02-14 02:34:00,36.7,27.8,30.00,NNW,343,3.1,3.1,70,0.00,,,0.00,VWS V12.08,2013-02-14 01:34:00,
2013-02-14 02:39:00,36.7,27.8,30.00,NNW,343,3.1,3.6,70,0.00,,,0.00,VWS V12.08,2013-02-14 01:39:00,
2013-02-14 02:40:00,36.7,27.8,30.00,NNW,343,2.7,3.6,70,0.00,,,0.00,VWS V12.08,2013-02-14 01:40:00,
2013-02-14 02:44:00,36.7,27.8,30.00,NNW,343,2.7,3.6,70,0.00,,,0.00,VWS V12.08,2013-02-14 01:44:00,
2013-02-14 02:49:00,36.5,27.7,30.00,NNW,343,3.1,3.6,70,0.00,,,0.00,VWS V12.08,2013-02-14 01:49:00,
2013-02-14 02:50:00,36.5,27.7,30.00,NNW,343,3.1,3.6,70,0.00,,,0.00,VWS V12.08,2013-02-14 01:50:00,
2013-02-14 02:54:00,36.5,28.0,30.00,NNW,343,3.1,3.6,71,0.00,,,0.00,VWS V12.08,2013-02-14 01:54:00,
2013-02-14 02:59:00,36.7,28.2,30.00,NNW,343,3.1,4.0,71,0.00,,,0.00,VWS V12.08,2013-02-14 01:59:00,
2013-02-14 03:00:00,36.7,28.2,30.00,NNW,343,2.7,4.0,71,0.00,,,0.00,VWS V12.08,2013-02-14 02:00:00,
2013-02-14 03:04:00,36.9,28.7,30.00,NNW,343,2.2,4.0,72,0.00,,,0.00,VWS V12.08,2013-02-14 02:04:00,
2013-02-14 03:09:00,37.2,29.0,30.00,NNW,343,2.2,4.0,72,0.00,,,0.00,VWS V12.08,2013-02-14 02:09:00,
2013-02-14 03:10:00,37.2,29.0,30.00,NNW,343,0.0,4.0,72,0.00,,,0.00,VWS V12.08,2013-02-14 02:10:00,
2013-02-14 03:14:00,37.4,29.2,30.00,ENE,58,2.2,3.6,72,0.00,,,0.00,VWS V12.08,2013-02-14 02:14:00,
2013-02-14 03:20:00,37.6,29.4,30.00,ENE,65,3.6,3.6,72,0.00,,,0.00,VWS V12.08,2013-02-14 02:20:00,
2013-02-14 03:25:00,37.8,29.6,30.00,ENE,60,3.1,3.6,72,0.00,,,0.00,VWS V12.08,2013-02-14 02:25:00,
2013-02-14 03:30:00,37.9,29.7,30.00,NE,38,3.1,3.1,72,0.00,,,0.00,VWS V12.08,2013-02-14 02:30:00,
2013-02-14 03:35:00,38.1,29.9,30.00,NE,42,3.1,4.0,72,0.00,,,0.00,VWS V12.08,2013-02-14 02:35:00,
2013-02-14 03:40:00,38.5,30.6,30.00,NE,54,4.0,4.9,73,0.00,,,0.00,VWS V12.08,2013-02-14 02:40:00,
2013-02-14 03:45:00,38.8,30.6,30.00,NE,41,3.1,5.8,72,0.00,,,0.00,VWS V12.08,2013-02-14 02:45:00,
2013-02-14 03:50:00,38.8,30.6,30.00,ENE,72,3.1,3.6,72,0.00,,,0.00,VWS V12.08,2013-02-14 02:50:00,
2013-02-14 03:56:00,38.8,30.6,30.00,ENE,72,3.1,4.0,72,0.00,,,0.00,VWS V12.08,2013-02-14 02:56:00,
2013-02-14 04:00:00,38.8,30.6,30.00,ENE,69,2.7,4.0,72,0.00,,,0.00,VWS V12.08,2013-02-14 03:00:00,
2013-02-14 04:01:00,38.8,30.6,30.00,East,88,2.7,3.1,72,0.00,,,0.00,VWS V12.08,2013-02-14 03:01:00,
2013-02-14 04:06:00,38.8,30.3,30.00,SE,140,2.2,5.4,71,0.00,,,0.00,VWS V12.08,2013-02-14 03:06:00,
2013-02-14 04:10:00,38.8,30.3,30.00,ENE,76,2.2,5.8,71,0.00,,,0.00,VWS V12.08,2013-02-14 03:10:00,
2013-02-14 04:11:00,38.8,30.3,30.00,NNE,26,0.0,3.6,71,0.00,,,0.00,VWS V12.08,2013-02-14 03:11:00,
2013-02-14 04:16:00,38.8,30.3,30.00,East,80,3.1,5.8,71,0.00,,,0.00,VWS V12.08,2013-02-14 03:16:00,
2013-02-14 04:20:00,38.7,30.1,30.00,ENE,78,3.6,6.3,71,0.00,,,0.00,VWS V12.08,2013-02-14 03:20:00,
2013-02-14 04:21:00,38.7,30.1,30.00,ENE,72,3.1,3.6,71,0.00,,,0.00,VWS V12.08,2013-02-14 03:21:00,
2013-02-14 04:26:00,38.7,29.7,30.00,NE,47,4.0,5.4,70,0.00,,,0.00,VWS V12.08,2013-02-14 03:26:00,
2013-02-14 04:30:00,38.7,29.7,30.00,NE,47,6.3,6.7,70,0.00,,,0.00,VWS V12.08,2013-02-14 03:30:00,
2013-02-14 04:32:00,38.7,29.7,30.00,NE,54,4.9,6.3,70,0.00,,,0.00,VWS V12.08,2013-02-14 03:32:00,
2013-02-14 04:37:00,38.5,29.6,30.00,ENE,59,2.2,6.3,70,0.00,,,0.00,VWS V12.08,2013-02-14 03:37:00,
2013-02-14 04:40:00,38.5,29.6,30.00,ENE,62,5.4,6.3,70,0.00,,,0.00,VWS V12.08,2013-02-14 03:40:00,
2013-02-14 04:42:00,38.5,29.6,30.00,ENE,66,3.1,5.4,70,0.00,,,0.00,VWS V12.08,2013-02-14 03:42:00,
2013-02-14 04:47:00,38.5,29.6,30.00,NE,47,3.1,5.4,70,0.00,,,0.00,VWS V12.08,2013-02-14 03:47:00,
2013-02-14 04:50:00,38.5,29.6,30.03,ENE,63,2.7,5.8,70,0.00,,,0.00,VWS V12.08,2013-02-14 03:50:00,
2013-02-14 04:52:00,38.5,29.6,30.03,East,100,4.9,4.9,70,0.00,,,0.00,VWS V12.08,2013-02-14 03:52:00,
2013-02-14 04:57:00,38.3,29.4,30.03,East,85,3.1,6.3,70,0.00,,,0.00,VWS V12.08,2013-02-14 03:57:00,
2013-02-14 05:00:00,38.3,29.4,30.03,ENE,78,3.1,6.3,70,0.00,,,0.00,VWS V12.08,2013-02-14 04:00:00,
2013-02-14 05:02:00,38.1,28.9,30.03,East,99,4.5,6.3,69,0.00,,,0.00,VWS V12.08,2013-02-14 04:02:00,
2013-02-14 05:07:00,38.1,28.9,30.03,NE,56,5.8,6.3,69,0.00,,,0.00,VWS V12.08,2013-02-14 04:07:00,
2013-02-14 05:10:00,38.1,28.9,30.03,East,82,3.1,6.3,69,0.00,,,0.00,VWS V12.08,2013-02-14 04:10:00,
2013-02-14 05:12:00,38.1,28.9,30.03,ENE,74,5.4,5.8,69,0.00,,,0.00,VWS V12.08,2013-02-14 04:12:00,
2013-02-14 05:17:00,38.1,28.9,30.03,ENE,75,2.7,6.3,69,0.00,,,0.00,VWS V12.08,2013-02-14 04:17:00,
2013-02-14 05:20:00,38.1,28.9,30.03,ENE,70,6.3,6.3,69,0.00,,,0.00,VWS V12.08,2013-02-14 04:20:00,
2013-02-14 05:22:00,38.1,28.9,30.03,East,98,3.1,6.3,69,0.00,,,0.00,VWS V12.08,2013-02-14 04:22:00,
2013-02-14 05:28:00,38.1,28.9,30.03,ENE,76,3.6,7.6,69,0.00,,,0.00,VWS V12.08,2013-02-14 04:28:00,
2013-02-14 05:30:00,38.1,28.9,30.03,NE,45,3.1,7.6,69,0.00,,,0.00,VWS V12.08,2013-02-14 04:30:00,
2013-02-14 05:33:00,38.1,28.9,30.03,ENE,69,4.0,6.3,69,0.00,,,0.00,VWS V12.08,2013-02-14 04:33:00,
2013-02-14 05:38:00,38.1,28.9,30.03,NE,56,3.1,8.3,69,0.00,,,0.00,VWS V12.08,2013-02-14 04:38:00,
2013-02-14 05:40:00,38.1,28.9,30.03,ESE,103,4.9,8.3,69,0.00,,,0.00,VWS V12.08,2013-02-14 04:40:00,
2013-02-14 05:43:00,37.9,28.7,30.03,ENE,60,2.7,5.8,69,0.00,,,0.00,VWS V12.08,2013-02-14 04:43:00,
2013-02-14 05:48:00,37.9,28.7,30.03,ESE,107,3.6,5.8,69,0.00,,,0.00,VWS V12.08,2013-02-14 04:48:00,
2013-02-14 05:50:00,37.9,28.7,30.03,North,4,3.1,5.8,69,0.00,,,0.00,VWS V12.08,2013-02-14 04:50:00,
2013-02-14 05:53:00,37.8,28.5,30.03,ENE,66,4.9,7.2,69,0.00,,,0.00,VWS V12.08,2013-02-14 04:53:00,
2013-02-14 05:58:00,37.8,28.5,30.03,ENE,68,6.3,7.6,69,0.00,,,0.00,VWS V12.08,2013-02-14 04:58:00,
2013-02-14 06:00:00,37.8,28.5,30.03,ESE,104,3.6,7.6,69,0.00,,,0.00,VWS V12.08,2013-02-14 05:00:00,
2013-02-14 06:05:00,37.6,28.4,30.03,ENE,71,3.1,6.3,69,0.00,,,0.00,VWS V12.08,2013-02-14 05:05:00,
2013-02-14 06:10:00,37.6,28.4,30.03,NE,51,5.8,5.8,69,0.00,,,0.00,VWS V12.08,2013-02-14 05:10:00,
2013-02-14 06:15:00,37.6,28.7,30.03,ENE,73,3.6,6.3,70,0.00,,,0.00,VWS V12.08,2013-02-14 05:15:00,
2013-02-14 06:20:00,37.4,28.5,30.00,NE,46,3.1,3.1,70,0.00,,,0.00,VWS V12.08,2013-02-14 05:20:00,
2013-02-14 06:25:00,37.4,28.5,30.00,ENE,70,4.9,8.1,70,0.00,,,0.00,VWS V12.08,2013-02-14 05:25:00,
2013-02-14 06:30:00,37.4,28.5,30.00,NE,39,3.6,3.6,70,0.00,,,0.00,VWS V12.08,2013-02-14 05:30:00,
2013-02-14 06:35:00,37.4,28.5,30.03,ENE,62,5.4,7.6,70,0.00,,,0.00,VWS V12.08,2013-02-14 05:35:00,
2013-02-14 06:40:00,37.4,28.5,30.03,ENE,75,5.8,5.8,70,0.00,,,0.00,VWS V12.08,2013-02-14 05:40:00,
2013-02-14 06:45:00,37.2,28.4,30.03,ENE,66,4.0,6.7,70,0.00,,,0.00,VWS V12.08,2013-02-14 05:45:00,
2013-02-14 06:50:00,37.2,28.4,30.03,NNE,12,3.6,5.8,70,0.00,,,0.00,VWS V12.08,2013-02-14 05:50:00,
2013-02-14 17:26:00,39.4,35.8,30.06,NE,44,0.0,0.0,87,0.00,,,0.00,VWS V12.08,2013-02-14 16:26:00,
2013-02-14 17:30:00,39.4,35.8,30.06,NE,44,0.0,2.2,87,0.04,,,0.04,VWS V12.08,2013-02-14 16:30:00,
2013-02-14 17:31:00,39.4,35.8,30.06,NE,44,0.0,2.7,87,0.04,,,0.04,VWS V12.08,2013-02-14 16:31:00,
2013-02-14 17:36:00,39.4,36.1,30.06,NE,44,2.2,2.7,88,0.04,,,0.04,VWS V12.08,2013-02-14 16:36:00,
2013-02-14 17:40:00,39.4,36.1,30.06,NE,44,2.2,3.1,88,0.04,,,0.04,VWS V12.08,2013-02-14 16:40:00,
2013-02-14 17:41:00,39.4,36.1,30.06,NE,44,0.0,3.1,88,0.04,,,0.04,VWS V12.08,2013-02-14 16:41:00,
2013-02-14 17:46:00,39.4,36.1,30.06,NE,44,2.2,3.1,88,0.04,,,0.04,VWS V12.08,2013-02-14 16:46:00,
2013-02-14 17:50:00,39.4,36.1,30.06,NE,44,2.7,3.1,88,0.04,,,0.04,VWS V12.08,2013-02-14 16:50:00,
2013-02-14 17:51:00,39.4,36.1,30.06,NE,44,2.7,2.7,88,0.04,,,0.04,VWS V12.08,2013-02-14 16:51:00,
2013-02-14 17:56:00,39.4,36.1,30.06,NE,44,3.1,3.1,88,0.04,,,0.04,VWS V12.08,2013-02-14 16:56:00,
2013-02-14 18:00:00,39.4,36.1,30.06,NE,44,0.0,3.1,88,0.04,,,0.04,VWS V12.08,2013-02-14 17:00:00,
2013-02-14 18:01:00,39.4,36.1,30.06,NE,44,2.2,2.7,88,0.04,,,0.04,VWS V12.08,2013-02-14 17:01:00,
2013-02-14 18:06:00,39.4,36.1,30.06,NE,44,2.7,3.1,88,0.04,,,0.04,VWS V12.08,2013-02-14 17:06:00,
2013-02-14 18:10:00,39.4,36.1,30.06,NE,44,2.7,3.6,88,0.04,,,0.04,VWS V12.08,2013-02-14 17:10:00,
2013-02-14 18:11:00,39.4,36.1,30.06,NE,44,2.2,2.7,88,0.04,,,0.04,VWS V12.08,2013-02-14 17:11:00,
2013-02-14 18:16:00,39.4,36.1,30.06,NE,44,0.0,3.1,88,0.04,,,0.04,VWS V12.08,2013-02-14 17:16:00,
2013-02-14 18:20:00,39.4,36.1,30.06,North,10,2.7,4.0,88,0.04,,,0.04,VWS V12.08,2013-02-14 17:20:00,
2013-02-14 18:21:00,39.4,36.1,30.06,North,9,2.7,2.7,88,0.04,,,0.04,VWS V12.08,2013-02-14 17:21:00,
2013-02-14 18:26:00,39.4,36.1,30.06,North,8,2.7,4.0,88,0.04,,,0.04,VWS V12.08,2013-02-14 17:26:00,
2013-02-14 18:30:00,39.4,36.1,30.06,North,8,2.2,4.0,88,0.04,,,0.04,VWS V12.08,2013-02-14 17:30:00,
2013-02-14 18:31:00,39.4,36.1,30.06,North,7,0.0,4.0,88,0.00,,,0.04,VWS V12.08,2013-02-14 17:31:00,
2013-02-14 18:36:00,39.4,36.1,30.06,North,7,0.0,4.0,88,0.00,,,0.04,VWS V12.08,2013-02-14 17:36:00,
2013-02-14 18:40:00,39.4,36.1,30.06,North,7,2.7,4.0,88,0.00,,,0.04,VWS V12.08,2013-02-14 17:40:00,
2013-02-14 18:41:00,39.4,36.1,30.06,North,7,2.2,2.7,88,0.00,,,0.04,VWS V12.08,2013-02-14 17:41:00,
2013-02-14 18:46:00,39.4,36.4,30.06,North,7,2.2,3.1,89,0.00,,,0.04,VWS V12.08,2013-02-14 17:46:00,
2013-02-14 18:50:00,39.4,36.4,30.06,North,7,2.2,3.1,89,0.00,,,0.04,VWS V12.08,2013-02-14 17:50:00,
2013-02-14 18:51:00,39.4,36.4,30.06,North,7,3.1,3.1,89,0.00,,,0.04,VWS V12.08,2013-02-14 17:51:00,
2013-02-14 18:56:00,39.4,36.4,30.06,North,7,2.7,3.6,89,0.00,,,0.04,VWS V12.08,2013-02-14 17:56:00,
2013-02-14 19:00:00,39.4,36.4,30.06,North,7,3.1,3.6,89,0.00,,,0.04,VWS V12.08,2013-02-14 18:00:00,
2013-02-14 19:01:00,39.4,36.4,30.06,North,7,0.0,3.1,89,0.00,,,0.04,VWS V12.08,2013-02-14 18:01:00,
2013-02-14 19:06:00,39.4,36.4,30.06,North,7,0.0,3.1,89,0.00,,,0.04,VWS V12.08,2013-02-14 18:06:00,
2013-02-14 19:10:00,39.4,36.4,30.06,North,6,0.0,3.1,89,0.00,,,0.04,VWS V12.08,2013-02-14 18:10:00,
2013-02-14 19:11:00,39.4,36.4,30.06,North,6,2.7,3.1,89,0.00,,,0.04,VWS V12.08,2013-02-14 18:11:00,
2013-02-14 19:16:00,39.4,36.4,30.06,North,6,0.0,3.1,89,0.00,,,0.04,VWS V12.08,2013-02-14 18:16:00,
2013-02-14 19:20:00,39.4,36.4,30.06,NNE,20,0.0,3.6,89,0.00,,,0.04,VWS V12.08,2013-02-14 18:20:00,
2013-02-14 19:21:00,39.4,36.4,30.06,NNE,16,3.1,4.0,89,0.00,,,0.04,VWS V12.08,2013-02-14 18:21:00,
2013-02-14 19:26:00,39.4,36.4,30.06,NNE,19,2.7,4.0,89,0.00,,,0.04,VWS V12.08,2013-02-14 18:26:00,
2013-02-14 19:30:00,39.4,36.4,30.06,NNE,23,0.0,4.0,89,0.00,,,0.04,VWS V12.08,2013-02-14 18:30:00,
2013-02-14 19:31:00,39.4,36.4,30.06,NNE,20,0.0,2.7,89,0.00,,,0.04,VWS V12.08,2013-02-14 18:31:00,
2013-02-14 19:36:00,39.4,36.4,30.06,North,0,0.0,3.6,89,0.00,,,0.04,VWS V12.08,2013-02-14 18:36:00,
2013-02-14 19:40:00,39.4,36.4,30.06,North,11,2.7,3.6,89,0.00,,,0.04,VWS V12.08,2013-02-14 18:40:00,
2013-02-14 19:41:00,39.4,36.4,30.06,NNE,27,2.7,3.6,89,0.00,,,0.04,VWS V12.08,2013-02-14 18:41:00,
2013-02-14 19:46:00,39.4,36.4,30.06,NNE,13,3.1,4.0,89,0.00,,,0.04,VWS V12.08,2013-02-14 18:46:00,
2013-02-14 19:50:00,39.4,36.4,30.06,NNE,23,3.6,4.0,89,0.00,,,0.04,VWS V12.08,2013-02-14 18:50:00,
2013-02-14 19:51:00,39.4,36.4,30.06,NNE,23,2.2,3.6,89,0.00,,,0.04,VWS V12.08,2013-02-14 18:51:00,
2013-02-14 19:56:00,39.4,36.4,30.06,NNE,32,3.1,4.0,89,0.00,,,0.04,VWS V12.08,2013-02-14 18:56:00,
2013-02-14 20:00:00,39.4,36.7,30.06,NE,44,2.2,4.0,90,0.00,,,0.04,VWS V12.08,2013-02-14 19:00:00,
2013-02-14 20:01:00,39.4,36.7,30.06,NNE,29,3.6,3.6,90,0.00,,,0.04,VWS V12.08,2013-02-14 19:01:00,
2013-02-14 20:06:00,39.4,36.7,30.06,NE,39,2.7,3.6,90,0.00,,,0.04,VWS V12.08,2013-02-14 19:06:00,
2013-02-14 20:10:00,39.4,36.7,30.06,NNE,27,2.7,3.6,90,0.00,,,0.04,VWS V12.08,2013-02-14 19:10:00,
2013-02-14 20:11:00,39.4,36.7,30.06,NNE,20,3.1,3.1,90,0.00,,,0.04,VWS V12.08,2013-02-14 19:11:00,
2013-02-14 20:16:00,39.4,36.7,30.06,North,4,2.7,3.6,90,0.00,,,0.04,VWS V12.08,2013-02-14 19:16:00,
2013-02-14 20:20:00,39.4,36.7,30.06,NNE,27,2.2,3.6,90,0.00,,,0.04,VWS V12.08,2013-02-14 19:20:00,
2013-02-14 20:21:00,39.4,36.7,30.06,NNE,27,2.2,2.7,90,0.00,,,0.04,VWS V12.08,2013-02-14 19:21:00,
2013-02-14 20:26:00,39.2,36.5,30.06,NNW,348,4.0,4.0,90,0.00,,,0.04,VWS V12.08,2013-02-14 19:26:00,
2013-02-14 20:30:00,39.2,36.5,30.06,North,10,3.6,4.0,90,0.00,,,0.04,VWS V12.08,2013-02-14 19:30:00,
2013-02-14 20:31:00,39.2,36.5,30.06,North,8,2.7,3.6,90,0.00,,,0.04,VWS V12.08,2013-02-14 19:31:00,
2013-02-14 20:36:00,39.2,36.5,30.03,NNE,24,2.7,4.0,90,0.00,,,0.04,VWS V12.08,2013-02-14 19:36:00,